Location: Austin
(30.3000°N, 97.7500°W)
Time: 09:10:28
(UTC-05:00)

Daily predictions for brighter satellites

Satellite Brightness Start Highest point End
(mag) Time Altitude Azimuth Time Altitude Azimuth Time Altitude Azimuth
Cosmos 405 2.9 20:01:03 10° S 20:04:32 63° E 20:08:01 10° NNE
Cosmos 923 Rocket 4.4 20:00:36 10° NNW 20:05:57 74° WSW 20:11:13 10° S
IUS-7 SRM-1 4.2 20:06:11 10° S 20:06:38 10° SSE 20:07:05 10° SE
Cosmos 2344 3.6 19:59:53 10° SSW 20:07:37 68° ESE 20:15:32 10° NE
METEOR-M 4.1 20:07:20 10° SSE 20:12:39 79° ENE 20:18:00 10° N
ATLAS CENTAUR R/B 4.1 20:11:52 10° WNW 20:14:10 16° WSW 20:16:27 10° SSW
Yuri Rocket 3.1 20:11:00 10° WSW 20:15:19 65° S 20:19:20 11° E
Cosmos 1437 Rocket 2.8 20:14:25 10° S 20:18:18 64° E 20:22:18 10° NNE
Helios 1B rocket 3.9 20:16:32 10° ENE 20:19:08 16° E 20:21:44 10° SE
SJ-6B 2.7 20:15:51 10° SSE 20:19:31 56° ENE 20:23:11 10° N
Lacrosse 4 Rocket 2.3 20:18:40 10° SW 20:22:38 51° WNW 20:26:35 10° NNE
SWIFT 4.1 20:28:36 10° SW 20:31:54 21° S 20:34:55 11° SE
Spot 2 Rocket 3.9 20:32:03 10° SE 20:36:50 43° ENE 20:41:39 10° N
Cosmos 1844 Rocket 3.9 20:32:06 10° SW 20:37:30 47° WNW 20:42:57 10° N
Delta 2 Rocket 4.2 20:31:17 10° W 20:38:13 61° S 20:42:52 18° ESE
Cosmos 1758 4.4 20:36:09 10° SE 20:39:17 23° E 20:42:25 10° NE
GPS 2-05 Rocket1 3.6 20:36:45 10° SW 20:40:04 36° SSE 20:41:43 23° E
Cosmos 192 4.3 20:35:57 10° NNW 20:40:54 88° ENE 20:45:47 10° SSE
FengYun 1-2 T 4.2 20:40:56 10° SSE 20:46:28 79° ENE 20:52:04 10° N
Cosmos 2278 Rocket 2.1 20:41:10 10° SSW 20:46:49 79° ESE 20:52:30 10° NNE
CZ-3 Stage 3 4.3 19:36:49 10° WSW 20:47:53 89° S 20:54:41 19° E
Tiangong 1 3.5 20:46:55 10° N 20:47:58 11° NNE 20:48:48 11° NNE
USA 215 3.2 20:41:39 10° NE 20:48:11 79° SE 20:54:42 10° SW
Cosmos 1953 3.2 20:46:48 14° SE 20:49:32 28° E 20:53:03 10° NNE
Cosmos 1378 3.0 20:46:53 10° N 20:50:40 88° E 20:54:23 10° S
Cosmos 1934 Rocket 4.0 20:47:07 10° S 20:53:18 83° W 20:59:26 10° N
H-2A R/B 2.6 20:50:51 10° SSE 20:54:41 76° ENE 20:58:35 10° N
Envisat 4.2 20:54:30 22° ENE 20:54:53 22° ENE 20:58:44 10° NNE
FENGYUN 3A 3.9 20:51:21 10° S 20:56:45 75° WSW 21:02:10 10° NNW
Okean 3 Rocket 4.1 20:54:16 10° NNE 20:58:21 37° E 20:59:29 31° ESE
Cosmos 2297 4.0 20:53:55 10° S 20:59:11 41° ESE 21:04:32 10° NE
Cosmos 1125 Rocket 3.7 20:55:14 10° S 21:00:07 44° ESE 21:05:03 10° NNE
Meteor 1-24 Rocket 3.7 21:02:23 10° N 21:07:54 83° W 21:13:37 10° S
ATLAS 5 CENTAUR R/B 3.5 21:07:13 10° S 21:08:20 16° SSE 21:08:20 16° SSE
Meteor 1-4 Rocket 4.3 21:14:46 20° NNE 21:14:46 20° NNE 21:16:00 10° NNE
ALOS 3.6 21:08:24 10° S 21:12:47 41° W 21:17:11 10° NNW
GP-B 3.5 21:14:49 42° ENE 21:14:49 42° ENE 21:18:35 10° NNE
Cosmos 1544 2.9 21:10:50 10° S 21:14:26 89° ESE 21:18:06 10° N
Resurs 01 Rocket 2.1 21:11:05 10° S 21:15:26 61° W 21:19:48 10° NNW
Aurora 2 Rocket 3.8 21:13:57 10° SW 21:19:20 31° S 21:19:49 30° SSE
RESURS DK-1 2.3 21:18:07 10° NNW 21:22:06 64° ENE 21:22:06 64° ENE
Cosmos 2082 Rocket 3.6 21:18:12 10° N 21:21:38 22° NE 21:21:38 22° NE
SL-27 R/B 2.5 21:20:43 10° NNW 21:24:14 79° W 21:24:14 79° W
Meteor 1-29 3.9 21:23:59 10° N 21:26:20 40° N 21:26:20 40° N
Timation 1 Rocket 4.4 21:24:15 10° SSW 21:30:14 79° WNW 21:36:17 10° NNE
Lacrosse 5 3.9 21:26:05 10° WSW 21:30:21 27° NW 21:34:39 10° NNE
Cosmos 2100 Rocket 4.1 21:28:37 41° SE 21:30:22 52° E 21:36:30 10° NNE
SeaSat 1 4.3 21:29:53 10° SSW 21:34:05 28° WSW 21:38:19 10° NW
Delta 2 Rocket 3.9 21:33:17 10° WNW 21:37:14 52° NNW 21:37:14 52° NNW
Cosmos 1076 Rocket 4.4 21:33:56 10° N 21:36:39 38° N 21:36:39 38° N
Cosmos 2098 Rocket 4.3 21:31:36 10° S 21:38:14 81° W 21:45:49 10° N
Spot 1 4.3 21:38:33 56° SSW 21:39:23 72° WSW 21:44:07 10° NNW
Delta 128 4.2 21:40:16 10° WSW 21:43:41 47° SW 21:43:41 47° SW
Meteor 1-21 Rocket 4.1 21:42:13 10° N 21:48:03 79° E 21:48:21 76° ESE
Helios 1A 3.8 21:50:45 48° W 21:50:45 48° W 21:54:43 10° NNW
Helios 1B rocket 4.4 21:50:53 10° NNW 21:54:24 28° WNW 21:57:54 10° SW
Cosmos 2061 Rocket 3.9 21:56:15 73° ENE 21:56:15 73° ENE 22:02:16 10° N
Cosmos 1867 4.1 21:50:45 10° SW 21:56:05 57° WNW 22:01:28 10° NNE
Cosmos 1833 Rocket 4.3 22:31:48 10° NNW 22:34:24 28° NNW 22:34:24 28° NNW
Cosmos 2082 Rocket 4.4 23:01:33 10° NW 23:03:31 21° NW 23:03:31 21° NW
